Wind_Speed
6 7 7 7 7 7 5 4 3 2 2 2 2 2 3 3 4 5 5 5 5 6 6 6 6 6 6 6 7 7 6 6 6 6 6 6 6 6 6 7 7 8 8 8 9 9 10 11 12
4 5 6 6 6 6 5 4 3 3 3 3 2 3 4 4 5 6 6 7 7 7 7 8 8 8 8 9 9 9 9 8 7 7 7 6 6 6 6 6 6 7 7 7 7 8 8 9 10
3 4 5 6 5 4 4 5 5 4 4 4 4 4 5 6 6 7 7 7 8 9 10 10 11 11 11 11 11 11 11 10 10 9 8 8 7 6 6 6 6 6 6 6 6 7 7 7 8
3 3 4 4 4 4 4 5 6 6 5 5 6 6 7 7 8 8 9 9 9 10 12 13 13 14 14 14 14 13 13 13 12 12 11 10 9 8 7 7 6 6 6 6 5 6 6 6 7
4 4 4 5 4 5 6 7 8 8 7 8 9 9 10 10 10 11 11 12 12 13 14 15 15 15 16 16 16 16 16 15 15 14 14 13 12 11 10 8 7 7 6 6 5 5 6 5 5
5 5 6 7 7 8 8 9 10 10 11 11 12 13 14 14 14 14 15 15 15 15 16 17 16 16 17 16 17 18 18 18 18 17 17 16 14 13 12 11 10 8 7 6 6 6 6 5 5
6 7 8 8 9 10 11 12 12 13 14 15 16 17 18 18 19 19 20 20 20 19 19 20 18 18 18 19 19 19 19 20 20 20 20 19 18 16 15 14 12 11 9 8 7 6 6 6 5
9 9 9 10 11 12 14 14 15 16 18 19 20 20 21 22 23 24 24 24 24 24 24 23 22 22 22 22 22 22 21 20 21 23 22 21 20 20 19 17 16 14 12 11 9 8 7 6 6
10 10 11 12 13 15 16 17 18 19 20 22 23 24 25 26 27 27 27 28 28 29 29 28 27 27 27 27 27 26 25 24 23 23 23 23 22 22 21 20 18 17 16 14 12 11 10 8 7
12 12 13 15 16 17 18 19 20 21 23 24 25 26 27 28 29 29 30 30 31 32 32 32 33 33 33 32 31 31 30 29 28 27 26 26 25 24 23 22 21 20 19 18 16 14 12 11 10
13 14 15 17 18 19 20 21 22 23 25 26 28 28 28 29 29 30 31 32 32 33 34 35 36 37 37 37 37 37 36 34 33 31 30 29 27 26 26 24 23 22 21 20 19 18 16 14 13
15 15 17 18 19 20 21 23 24 25 27 28 28 29 28 29 29 30 31 32 32 33 33 34 34 36 38 39 40 40 41 40 39 37 35 33 31 28 27 27 26 24 23 23 22 20 19 17 16
16 17 18 19 20 21 23 24 26 27 27 28 28 29 30 30 29 28 28 28 29 30 31 32 32 33 34 36 38 40 41 42 43 42 41 39 37 34 32 30 29 28 27 26 25 23 21 20 19
17 18 19 20 21 22 23 25 26 26 26 27 27 27 26 25 24 25 25 26 27 28 29 29 30 31 32 33 34 36 38 40 42 43 44 43 42 40 37 34 33 31 30 29 28 26 24 23 22
18 19 20 21 22 23 24 24 24 24 24 24 24 23 22 22 22 23 23 24 25 26 27 29 29 30 30 31 31 32 34 36 39 41 43 43 43 42 41 39 38 35 33 31 30 29 27 27 25
18 19 20 21 22 22 23 22 22 22 22 21 21 20 20 20 21 21 21 22 23 24 24 24 25 26 27 27 29 30 31 33 34 37 40 42 43 43 43 42 42 40 38 36 34 32 31 30 29
18 19 20 21 21 20 20 20 19 19 19 19 19 19 19 19 19 19 20 20 21 22 22 23 23 23 24 24 25 26 28 29 31 33 36 38 41 43 44 44 44 44 43 40 38 37 34 32 31
18 19 19 20 19 18 18 18 17 17 17 17 17 17 17 18 18 19 20 20 21 22 22 21 21 21 21 22 22 23 24 25 27 30 32 35 37 39 42 43 44 44 44 44 42 39 38 36 33
17 17 18 17 16 16 16 15 15 15 14 15 15 16 16 17 18 19 20 20 21 21 20 20 20 20 19 19 19 19 20 22 23 26 28 31 34 36 38 41 42 43 45 46 45 43 41 39 38
16 16 15 14 14 14 13 12 12 12 12 13 14 15 16 17 19 19 20 20 20 20 20 20 20 19 18 17 17 16 17 18 19 21 24 27 31 33 35 38 40 42 43 45 45 45 44 42 41
14 13 13 12 12 11 10 9 10 10 11 12 13 14 15 17 18 19 20 21 20 20 20 21 20 18 17 16 15 14 14 15 16 18 21 24 26 29 32 34 37 40 42 43 44 44 44 44 43
12 11 10 9 8 8 7 7 9 9 10 11 12 14 15 16 18 19 20 20 21 21 21 21 19 18 17 16 15 14 13 13 13 15 17 19 23 26 28 31 33 36 39 42 43 43 43 44 44
9 8 7 5 5 4 5 6 8 9 10 11 12 13 15 16 18 19 20 20 21 21 21 20 20 19 18 17 16 15 13 12 13 13 14 16 18 21 25 27 30 34 36 39 41 42 43 43 44
6 4 3 2 2 3 5 6 7 8 10 11 12 13 14 16 17 19 20 20 21 21 21 20 20 20 20 19 17 16 15 13 13 12 13 14 15 18 20 24 27 30 33 36 39 41 42 43 43
3 1 1 2 2 3 4 5 7 8 10 11 12 13 15 16 17 18 19 20 21 21 21 21 21 21 20 20 19 18 16 15 14 13 13 13 13 15 18 20 23 26 29 32 35 39 41 42 44
3 3 3 3 3 3 4 5 7 8 10 11 12 13 15 15 16 17 19 20 21 22 21 21 21 21 21 21 20 19 18 17 16 15 14 13 13 12 13 16 19 22 26 29 32 35 38 40 42
5 5 5 5 4 4 4 5 7 8 10 11 12 14 15 15 16 17 18 20 21 22 22 22 22 22 22 22 21 20 20 19 18 16 15 14 13 12 11 13 16 19 22 26 30 33 36 38 40
6 6 6 5 4 4 4 5 6 8 10 11 12 13 14 15 16 17 18 19 20 22 22 23 23 23 23 23 23 22 21 20 20 19 18 17 15 13 12 12 13 16 19 23 26 30 33 36 38
7 6 6 5 4 4 4 5 6 7 9 11 12 13 14 15 16 17 18 19 20 21 22 23 24 24 24 24 24 23 23 22 21 20 19 18 17 15 14 13 13 14 16 19 22 26 29 32 35
7 6 5 5 4 4 4 5 6 7 9 10 11 12 13 14 15 16 17 18 19 20 21 22 23 24 24 24 24 24 24 23 22 22 20 20 18 17 15 14 14 14 15 17 20 22 26 29 32
Wind_Direction
75 70 64 58 59 56 55 48 39 31 28 33 22 5 343 326 312 299 292 273 263 256 248 239 232 230 226 219 215 213 211 209 205 200 195 192 192 195 199 207 215 222 228 233 236 240 243 245 244
55 56 53 46 47 47 39 32 19 10 358 352 352 346 332 320 313 304 297 289 278 266 261 256 249 244 239 232 225 223 223 221 221 217 212 206 202 203 205 210 216 221 227 232 237 241 244 245 244
23 38 36 34 32 29 14 4 353 348 339 334 329 327 322 316 311 307 300 295 291 278 269 264 258 250 245 241 235 231 229 228 228 226 224 221 217 215 214 215 217 220 224 229 233 236 239 241 243
344 354 7 9 5 348 343 342 344 336 325 326 324 321 317 312 309 305 299 297 295 288 276 271 267 261 251 245 240 235 233 232 232 231 228 227 225 223 223 222 223 224 226 228 230 232 234 236 240
324 327 334 327 321 316 320 319 322 324 318 317 317 314 313 309 304 300 297 297 294 292 284 275 271 268 260 252 245 241 239 237 236 235 234 231 229 227 227 227 228 228 229 229 231 230 231 232 235
302 305 311 308 305 303 307 316 317 313 313 311 309 307 305 303 299 296 293 292 292 291 288 282 275 269 262 258 254 252 248 245 240 238 237 236 234 234 231 231 232 231 229 229 231 230 226 229 229
287 295 297 302 301 300 302 306 307 306 304 303 301 299 298 297 295 293 290 288 286 284 283 279 272 269 264 262 258 258 255 253 250 246 244 241 238 237 236 233 232 233 233 232 230 228 227 228 227
285 292 295 297 297 294 298 302 303 300 298 298 298 297 295 294 292 291 289 286 283 279 278 275 269 267 266 263 260 257 256 256 255 253 250 248 244 241 238 236 234 233 234 233 231 230 231 230 225
282 288 290 293 294 295 298 300 300 298 297 297 296 295 294 292 291 289 286 284 281 278 277 273 269 268 266 262 259 257 257 257 256 255 254 251 250 248 245 241 238 235 235 234 233 232 232 232 228
280 285 289 292 294 296 298 300 300 300 299 298 297 296 295 293 291 288 286 284 281 278 276 273 270 267 265 263 262 261 259 258 257 255 255 253 251 250 248 245 242 240 238 237 235 233 232 233 231
280 285 289 293 296 298 300 302 302 302 301 300 299 297 296 294 291 289 287 286 283 280 277 275 271 269 266 264 262 261 261 260 259 256 255 254 251 250 249 244 243 242 240 240 238 235 233 233 233
280 285 290 294 297 300 302 303 304 303 302 302 301 301 299 297 294 292 290 288 285 282 280 278 276 272 269 266 264 261 260 260 259 257 256 253 251 250 249 248 246 244 242 242 239 238 234 234 234
280 286 291 294 298 301 303 304 304 304 304 304 304 303 302 300 298 296 293 291 288 286 283 281 279 276 273 270 267 264 261 259 258 258 256 254 252 249 248 248 248 246 245 242 240 240 238 236 234
281 286 291 295 298 302 304 305 305 306 307 307 307 307 307 306 305 303 300 298 295 291 288 286 283 280 277 273 269 266 262 259 258 257 257 256 254 252 250 249 246 246 245 242 240 239 239 239 236
281 287 292 296 300 303 305 306 307 308 310 311 313 314 313 313 311 309 308 306 304 300 296 292 288 284 280 276 272 268 265 261 258 256 255 254 254 253 252 251 247 244 243 242 240 240 239 240 240
281 287 292 298 302 305 307 307 309 311 314 317 319 319 318 317 316 315 314 312 311 309 306 301 295 290 285 280 274 270 265 261 259 257 254 253 252 252 251 250 249 248 246 243 241 240 240 240 241
281 287 293 298 303 305 307 309 312 316 320 322 324 324 325 325 324 324 323 322 320 319 316 311 305 298 292 286 280 274 268 262 259 257 256 254 252 251 251 250 249 249 249 246 244 243 241 240 240
280 287 293 299 303 307 310 312 316 321 325 328 331 333 334 335 336 335 332 329 326 325 323 319 314 307 299 292 286 279 273 266 261 259 256 254 252 251 250 250 248 247 247 247 246 244 244 242 240
280 288 295 301 306 311 314 316 322 327 333 336 340 342 343 344 343 341 338 336 334 333 332 329 324 320 313 304 295 287 279 272 266 262 257 254 252 250 249 248 248 247 246 246 246 244 244 243 241
282 290 297 303 309 313 318 323 330 338 343 346 347 349 350 350 349 349 347 345 343 341 339 336 333 329 325 319 308 298 288 278 271 267 262 257 253 251 249 248 247 246 245 244 244 244 243 243 241
283 292 298 305 311 317 325 335 344 351 354 355 356 357 356 354 354 354 353 352 350 348 347 345 342 340 337 333 325 312 301 290 281 274 268 262 256 252 250 248 247 245 244 243 243 243 242 241 241
283 289 297 306 315 328 341 350 357 359 3 4 4 1 360 359 358 358 356 355 354 354 353 353 352 351 348 344 340 331 319 308 298 287 277 268 259 254 251 249 246 245 244 243 243 242 242 241 240
278 287 298 311 328 348 3 4 7 11 12 9 5 3 2 2 1 1 1 1 0 360 0 1 1 360 358 354 350 345 337 325 314 303 291 279 268 260 255 251 248 245 244 243 242 242 241 240 239
269 280 303 342 13 28 22 19 20 19 16 10 6 5 5 4 4 4 5 6 6 5 6 6 7 6 4 3 359 355 349 340 331 320 308 294 279 269 261 255 250 247 245 244 242 241 240 240 239
238 229 111 71 65 47 36 33 31 23 16 13 11 10 8 7 7 8 9 9 9 9 10 10 10 10 10 9 7 3 358 351 343 334 325 313 297 280 267 260 254 250 247 245 244 242 241 240 240
186 152 127 112 97 73 51 45 34 26 21 19 17 14 12 12 10 11 11 11 11 13 14 14 14 13 12 11 11 9 5 360 353 346 338 330 317 300 281 268 260 255 250 247 245 243 241 240 239
160 143 130 119 105 81 61 49 37 28 24 22 19 18 18 18 16 15 15 15 16 17 19 19 17 16 16 14 13 11 8 5 0 355 347 339 328 317 302 286 272 263 256 250 247 244 242 241 239
151 139 131 122 105 80 56 38 29 25 23 21 20 21 22 22 20 20 19 19 19 21 22 21 20 18 17 16 15 13 10 8 4 359 354 348 338 328 314 300 288 276 266 258 252 247 244 241 240
150 139 128 116 100 76 49 34 27 22 20 20 22 23 23 23 23 22 21 21 21 21 21 21 20 19 19 17 16 15 13 10 7 3 359 355 349 338 326 313 299 287 277 267 259 251 247 243 241
148 138 129 120 102 72 50 38 30 24 23 25 26 25 24 24 23 22 21 20 21 21 20 19 19 19 18 17 17 15 14 12 10 8 4 360 356 349 338 327 314 298 285 274 265 257 250 245 242
Height
5928 5927 5927 5927 5927 5927 5926 5925 5924 5923 5922 5921 5920 5919 5918 5918 5918 5919 5915 5913 5912 5912 5911 5910 5910 5910 5910 5909 5909 5909 5908 5908 5908 5907 5907 5906 5905 5905 5905 5904 5904 5904 5904 5904 5905 5905 5905 5905 5905
5929 5928 5928 5928 5927 5927 5927 5925 5924 5923 5922 5921 5920 5919 5918 5916 5915 5914 5913 5912 5911 5911 5910 5909 5908 5908 5908 5908 5908 5907 5907 5907 5906 5906 5906 5905 5905 5904 5904 5903 5903 5903 5903 5903 5903 5903 5903 5903 5903
5929 5928 5929 5929 5927 5927 5927 5925 5924 5923 5922 5920 5919 5918 5917 5916 5914 5913 5911 5910 5910 5909 5908 5907 5906 5906 5906 5905 5905 5905 5905 5905 5904 5904 5904 5904 5903 5903 5903 5902 5902 5902 5902 5902 5902 5901 5901 5901 5901
5930 5930 5930 5929 5928 5927 5926 5925 5923 5922 5921 5920 5919 5917 5916 5914 5913 5912 5910 5909 5908 5907 5906 5905 5904 5903 5902 5902 5902 5902 5902 5902 5902 5902 5902 5902 5901 5901 5901 5901 5901 5901 5901 5901 5900 5900 5900 5900 5900
5929 5929 5929 5929 5927 5926 5925 5924 5922 5921 5920 5919 5917 5916 5914 5913 5911 5910 5908 5907 5906 5904 5903 5902 5900 5899 5899 5899 5898 5898 5898 5899 5899 5899 5899 5899 5899 5899 5899 5899 5899 5899 5899 5899 5899 5899 5898 5898 5898
5929 5928 5928 5927 5926 5925 5924 5922 5921 5920 5918 5917 5915 5914 5912 5910 5909 5907 5906 5904 5903 5901 5899 5898 5897 5896 5896 5895 5895 5894 5894 5894 5895 5895 5895 5895 5896 5896 5896 5897 5897 5897 5897 5897 5897 5897 5897 5897 5897
5928 5927 5927 5926 5925 5924 5922 5921 5919 5918 5916 5915 5913 5911 5909 5907 5906 5904 5902 5901 5899 5898 5896 5894 5893 5892 5892 5891 5891 5891 5890 5890 5890 5890 5891 5891 5892 5892 5893 5894 5894 5895 5895 5895 5896 5896 5896 5896 5896
5925 5926 5925 5924 5923 5922 5920 5918 5917 5915 5913 5912 5910 5908 5906 5904 5902 5900 5898 5896 5895 5893 5891 5890 5889 5888 5887 5887 5886 5886 5886 5886 5886 5886 5886 5886 5887 5888 5888 5890 5891 5891 5892 5893 5893 5894 5894 5894 5894
5923 5925 5923 5922 5921 5919 5917 5915 5914 5912 5910 5908 5906 5904 5902 5899 5897 5895 5893 5891 5889 5888 5886 5885 5883 5882 5882 5881 5881 5881 5881 5881 5881 5881 5881 5882 5882 5883 5884 5885 5887 5888 5889 5890 5891 5892 5892 5892 5893
5921 5921 5920 5919 5918 5916 5914 5912 5910 5908 5906 5904 5901 5899 5896 5894 5892 5890 5887 5885 5883 5881 5880 5878 5877 5876 5876 5875 5875 5875 5875 5875 5875 5875 5876 5876 5877 5878 5879 5881 5882 5883 5885 5886 5887 5888 5889 5890 5891
5918 5918 5917 5915 5914 5912 5910 5908 5906 5904 5901 5899 5896 5894 5891 5889 5886 5883 5881 5879 5876 5874 5872 5871 5869 5868 5868 5867 5867 5868 5867 5868 5868 5869 5869 5870 5871 5873 5874 5875 5877 5878 5880 5882 5883 5884 5886 5887 5888
5916 5915 5914 5912 5910 5908 5906 5904 5902 5899 5897 5894 5891 5888 5885 5883 5880 5877 5874 5872 5869 5866 5864 5862 5861 5860 5859 5859 5859 5859 5859 5860 5861 5861 5862 5864 5865 5866 5868 5870 5871 5873 5875 5877 5878 5880 5882 5883 5885
5913 5912 5911 5909 5907 5905 5903 5900 5898 5894 5892 5889 5886 5883 5879 5876 5873 5870 5867 5864 5862 5859 5857 5855 5853 5852 5850 5849 5849 5849 5850 5851 5852 5853 5854 5856 5858 5860 5861 5863 5865 5867 5869 5870 5873 5875 5877 5879 5881
5910 5909 5907 5906 5904 5902 5899 5896 5893 5890 5887 5884 5881 5877 5874 5870 5867 5864 5861 5858 5855 5852 5850 5847 5845 5843 5842 5841 5840 5840 5841 5841 5842 5844 5845 5847 5849 5852 5854 5856 5858 5860 5862 5865 5867 5870 5872 5874 5876
5907 5906 5904 5902 5901 5898 5896 5893 5889 5886 5883 5880 5876 5873 5869 5866 5862 5859 5856 5852 5849 5846 5843 5840 5838 5836 5834 5833 5832 5831 5831 5832 5833 5834 5836 5838 5840 5843 5845 5848 5850 5853 5855 5858 5861 5864 5866 5869 5871
5903 5903 5901 5899 5897 5895 5894 5890 5886 5882 5879 5876 5872 5869 5866 5862 5858 5855 5851 5848 5844 5841 5837 5834 5831 5828 5826 5825 5824 5823 5823 5823 5824 5825 5826 5828 5831 5834 5836 5839 5842 5845 5848 5851 5854 5857 5860 5863 5865
5900 5899 5898 5896 5894 5891 5889 5886 5883 5879 5876 5873 5869 5866 5862 5859 5855 5851 5848 5844 5840 5836 5832 5828 5825 5822 5819 5818 5816 5815 5815 5815 5816 5817 5818 5819 5822 5824 5827 5830 5833 5836 5839 5843 5846 5850 5853 5856 5859
5897 5896 5894 5892 5890 5888 5885 5882 5879 5876 5873 5870 5866 5863 5860 5856 5852 5848 5845 5841 5837 5833 5828 5824 5820 5817 5814 5811 5810 5808 5808 5808 5808 5809 5809 5811 5813 5815 5818 5821 5824 5827 5830 5834 5838 5842 5845 5849 5852
5894 5893 5891 5889 5887 5884 5882 5879 5876 5874 5871 5868 5864 5861 5858 5854 5850 5846 5842 5838 5834 5829 5825 5821 5817 5813 5809 5806 5804 5803 5802 5801 5801 5801 5802 5803 5804 5806 5809 5812 5814 5818 5821 5825 5829 5833 5837 5841 5844
5890 5889 5888 5886 5883 5881 5879 5877 5874 5871 5869 5866 5863 5860 5856 5853 5849 5845 5840 5836 5831 5827 5823 5818 5814 5810 5806 5802 5800 5798 5796 5796 5795 5795 5795 5795 5796 5798 5800 5803 5805 5808 5812 5816 5819 5824 5828 5832 5836
5887 5886 5884 5883 5881 5879 5877 5875 5873 5870 5867 5865 5862 5859 5855 5852 5848 5843 5839 5835 5830 5825 5821 5816 5812 5807 5804 5800 5797 5794 5792 5791 5790 5790 5789 5789 5789 5791 5792 5794 5797 5799 5803 5806 5810 5814 5819 5823 5827
5883 5883 5881 5880 5878 5877 5876 5874 5872 5869 5866 5864 5861 5858 5855 5851 5847 5843 5839 5834 5829 5825 5820 5815 5810 5806 5802 5798 5795 5792 5789 5788 5786 5785 5784 5783 5783 5784 5785 5786 5788 5791 5794 5797 5801 5805 5809 5814 5818
5881 5880 5879 5878 5876 5876 5874 5873 5872 5868 5866 5864 5861 5858 5855 5851 5847 5843 5838 5834 5829 5824 5819 5815 5810 5806 5801 5797 5793 5790 5787 5785 5783 5781 5780 5779 5778 5778 5778 5779 5781 5783 5786 5789 5792 5796 5800 5804 5808
5878 5878 5877 5876 5876 5875 5874 5873 5871 5868 5866 5864 5861 5858 5854 5851 5847 5843 5838 5834 5829 5824 5819 5815 5810 5806 5801 5797 5793 5789 5786 5783 5781 5778 5776 5775 5773 5773 5772 5773 5774 5775 5778 5780 5783 5787 5791 5795 5799
5877 5877 5877 5876 5875 5875 5873 5872 5871 5868 5866 5863 5861 5857 5854 5850 5847 5843 5838 5834 5830 5825 5820 5815 5810 5806 5801 5797 5793 5789 5785 5782 5779 5776 5774 5771 5769 5767 5767 5767 5767 5769 5770 5772 5775 5778 5781 5785 5789
5875 5876 5876 5876 5875 5875 5873 5872 5871 5868 5866 5863 5860 5857 5854 5850 5847 5843 5839 5835 5830 5825 5820 5816 5811 5807 5802 5798 5793 5789 5785 5782 5778 5775 5772 5769 5766 5763 5762 5762 5762 5762 5763 5765 5767 5769 5772 5776 5779
5874 5874 5875 5875 5874 5874 5873 5872 5870 5868 5866 5863 5860 5857 5854 5850 5847 5843 5839 5835 5831 5826 5821 5817 5812 5807 5803 5798 5794 5790 5785 5781 5778 5774 5770 5766 5763 5761 5759 5758 5757 5757 5757 5758 5759 5761 5764 5766 5770
5873 5873 5874 5874 5874 5874 5873 5872 5870 5868 5866 5863 5860 5857 5854 5851 5847 5844 5840 5836 5832 5828 5823 5818 5814 5809 5804 5799 5795 5790 5786 5781 5777 5773 5769 5765 5761 5758 5756 5754 5753 5752 5751 5751 5751 5753 5755 5758 5761
5873 5873 5873 5873 5873 5873 5872 5874 5870 5868 5866 5863 5860 5858 5855 5851 5848 5845 5841 5837 5833 5829 5825 5820 5815 5810 5805 5801 5796 5791 5786 5782 5777 5773 5768 5764 5760 5756 5753 5751 5749 5747 5746 5745 5745 5745 5747 5749 5752
5871 5872 5873 5873 5873 5872 5872 5874 5869 5867 5865 5863 5860 5858 5855 5852 5849 5846 5842 5839 5835 5830 5826 5821 5817 5812 5807 5802 5797 5792 5787 5782 5777 5772 5767 5763 5759 5755 5751 5748 5745 5742 5741 5739 5739 5739 5740 5741 5744